�������l�o���
Date,Time,MP-1(��Sv/h),MP-2(��Sv/h),MP-3(��Sv/h),MP-4(��Sv/h),MP-5(��Sv/h),MP-6(��Sv/h),MP-7(��Sv/h),MP-8(��Sv/h),����,����(m/s),���J
2021/06/05,00:00,0.607,0.886,0.572,1.083,0.769,0.371,0.632,0.594,�k�k��,2.3,��
2021/06/05,00:10,0.605,0.885,0.572,1.081,0.767,0.369,0.631,0.592,�k�k��,2.3,��
2021/06/05,00:20,0.606,0.886,0.571,1.080,0.766,0.370,0.631,0.593,�k��,2.0,��
2021/06/05,00:30,0.606,0.883,0.568,1.081,0.765,0.368,0.630,0.592,�k��,2.0,��
2021/06/05,00:40,0.605,0.884,0.568,1.080,0.766,0.369,0.630,0.593,�k�k��,2.8,��
2021/06/05,00:50,0.605,0.885,0.569,1.080,0.766,0.369,0.631,0.593,�k�k��,2.9,��
2021/06/05,01:00,0.605,0.883,0.568,1.080,0.766,0.367,0.630,0.594,�k��,2.9,��
2021/06/05,01:10,0.605,0.883,0.569,1.079,0.764,0.367,0.630,0.594,�k��,2.0,��
2021/06/05,01:20,0.604,0.881,0.568,1.080,0.764,0.366,0.629,0.595,�k��,1.4,��
2021/06/05,01:30,0.603,0.883,0.567,1.081,0.763,0.365,0.630,0.594,�k��,1.2,��
2021/06/05,01:40,0.604,0.882,0.567,1.079,0.765,0.366,0.629,0.593,�k��,2.2,��
2021/06/05,01:50,0.603,0.882,0.566,1.079,0.763,0.366,0.629,0.594,�k��,2.9,��
2021/06/05,02:00,0.605,0.883,0.566,1.080,0.764,0.366,0.630,0.592,�k��,2.8,��
2021/06/05,02:10,0.602,0.882,0.566,1.077,0.764,0.364,0.629,0.594,�k�k��,2.5,��
2021/06/05,02:20,0.603,0.884,0.567,1.081,0.763,0.366,0.629,0.593,�k,2.6,��
2021/06/05,02:30,0.603,0.884,0.567,1.079,0.765,0.367,0.630,0.593,�k,2.5,��
2021/06/05,02:40,0.601,0.883,0.567,1.079,0.764,0.367,0.630,0.594,�k�k��,1.7,��
2021/06/05,02:50,0.602,0.881,0.567,1.080,0.766,0.366,0.631,0.593,�k�k��,1.9,��
2021/06/05,03:00,0.603,0.884,0.567,1.080,0.765,0.365,0.631,0.593,�k��,1.5,��
2021/06/05,03:10,0.601,0.882,0.568,1.081,0.766,0.367,0.631,0.593,�k��,2.3,��
2021/06/05,03:20,0.603,0.884,0.567,1.080,0.763,0.366,0.633,0.592,�k�k��,3.1,��
2021/06/05,03:30,0.603,0.883,0.567,1.079,0.764,0.366,0.631,0.594,�k��,3.5,��
2021/06/05,03:40,0.603,0.883,0.567,1.080,0.764,0.365,0.631,0.593,�k�k��,3.6,��
2021/06/05,03:50,0.604,0.883,0.567,1.080,0.766,0.367,0.632,0.594,�k��,3.8,��
2021/06/05,04:00,0.602,0.882,0.567,1.080,0.766,0.367,0.633,0.594,�k�k��,3.3,��
2021/06/05,04:10,0.604,0.881,0.567,1.080,0.766,0.367,0.632,0.593,�k��,3.1,��
2021/06/05,04:20,0.603,0.883,0.567,1.079,0.765,0.367,0.631,0.594,�k��,2.8,��
2021/06/05,04:30,0.604,0.882,0.567,1.082,0.767,0.366,0.631,0.593,�k��,2.5,��
2021/06/05,04:40,0.602,0.883,0.565,1.079,0.765,0.366,0.632,0.595,�k�k��,1.5,��
2021/06/05,04:50,0.601,0.883,0.567,1.079,0.767,0.368,0.632,0.592,�k�k��,2.0,��
2021/06/05,05:00,0.602,0.882,0.568,1.082,0.765,0.366,0.632,0.593,�k�k��,2.3,��
2021/06/05,05:10,0.602,0.882,0.566,1.079,0.766,0.366,0.632,0.594,�k�k��,2.8,��
2021/06/05,05:20,0.602,0.883,0.567,1.080,0.767,0.366,0.631,0.594,�k�k��,3.3,��
2021/06/05,05:30,0.601,0.883,0.567,1.080,0.766,0.368,0.631,0.593,�k�k��,3.8,��
2021/06/05,05:40,0.601,0.884,0.565,1.081,0.766,0.367,0.630,0.594,�k�k��,5.0,��
2021/06/05,05:50,0.603,0.883,0.567,1.081,0.765,0.365,0.631,0.593,�k�k��,4.7,��
2021/06/05,06:00,0.601,0.883,0.567,1.082,0.767,0.365,0.630,0.593,�k�k��,4.4,��
2021/06/05,06:10,0.603,0.884,0.567,1.082,0.768,0.367,0.631,0.593,�k�k��,4.2,��
2021/06/05,06:20,0.603,0.884,0.567,1.082,0.765,0.367,0.633,0.595,�k�k��,3.7,��
2021/06/05,06:30,0.604,0.883,0.567,1.081,0.766,0.365,0.632,0.594,�k�k��,3.3,��
2021/06/05,06:40,0.605,0.882,0.567,1.084,0.765,0.366,0.633,0.594,�k�k��,3.6,��
2021/06/05,06:50,0.604,0.882,0.567,1.082,0.768,0.365,0.634,0.594,�k�k��,3.3,��
2021/06/05,07:00,0.603,0.882,0.566,1.082,0.765,0.364,0.633,0.594,�k��,2.0,��
2021/06/05,07:10,0.603,0.883,0.567,1.082,0.767,0.366,0.633,0.595,�k�k��,3.1,��
2021/06/05,07:20,0.603,0.883,0.567,1.082,0.768,0.363,0.633,0.594,�k�k��,2.2,��
2021/06/05,07:30,0.604,0.886,0.567,1.083,0.768,0.364,0.631,0.594,�k��,3.0,��
2021/06/05,07:40,0.603,0.886,0.568,1.083,0.767,0.364,0.630,0.595,�k��,2.8,��
2021/06/05,07:50,0.603,0.884,0.568,1.084,0.768,0.364,0.631,0.593,���k��,2.2,��
2021/06/05,08:00,0.604,0.887,0.568,1.084,0.768,0.365,0.630,0.591,���k��,2.5,��
2021/06/05,08:10,0.604,0.887,0.568,1.083,0.769,0.365,0.631,0.592,�k��,2.2,��
2021/06/05,08:20,0.604,0.884,0.569,1.083,0.770,0.365,0.632,0.593,���k��,3.0,��
2021/06/05,08:30,0.604,0.887,0.569,1.084,0.768,0.365,0.633,0.593,��,3.2,��
2021/06/05,08:40,0.604,0.888,0.569,1.085,0.769,0.364,0.633,0.592,��,3.2,��
2021/06/05,08:50,0.605,0.888,0.568,1.086,0.769,0.364,0.632,0.592,��,3.8,��
2021/06/05,09:00,0.605,0.887,0.569,1.086,0.771,0.363,0.633,0.592,��,3.9,��
2021/06/05,09:10,0.607,0.888,0.568,1.082,0.769,0.366,0.633,0.593,��,3.7,��
2021/06/05,09:20,0.607,0.890,0.569,1.086,0.771,0.366,0.632,0.592,���쓌,3.7,��
2021/06/05,09:30,0.606,0.890,0.570,1.085,0.771,0.365,0.633,0.593,���쓌,4.4,��
2021/06/05,09:40,0.606,0.890,0.571,1.086,0.771,0.365,0.634,0.593,���쓌,4.7,��
2021/06/05,09:50,0.608,0.890,0.569,1.088,0.773,0.366,0.634,0.593,�쓌,4.5,��
2021/06/05,10:00,0.609,0.891,0.570,1.087,0.774,0.366,0.634,0.594,�쓌,3.9,��
2021/06/05,10:10,0.609,0.890,0.570,1.086,0.773,0.365,0.635,0.595,�쓌,4.5,��
2021/06/05,10:20,0.609,0.890,0.570,1.088,0.775,0.366,0.635,0.592,�쓌,5.4,��
2021/06/05,10:30,0.608,0.894,0.572,1.088,0.775,0.367,0.634,0.595,��쓌,6.0,��
2021/06/05,10:40,0.609,0.894,0.571,1.089,0.773,0.366,0.635,0.594,��쓌,5.1,��
2021/06/05,10:50,0.609,0.893,0.572,1.089,0.773,0.367,0.635,0.594,�쓌,6.4,��
2021/06/05,11:00,0.611,0.894,0.571,1.091,0.776,0.366,0.634,0.595,��쓌,6.8,��
2021/06/05,11:10,0.610,0.897,0.573,1.086,0.777,0.367,0.636,0.594,��쓌,6.0,��
2021/06/05,11:20,0.610,0.895,0.571,1.082,0.777,0.368,0.634,0.594,��쓌,7.2,��
2021/06/05,11:30,0.611,0.896,0.573,1.085,0.777,0.366,0.635,0.595,��쓌,8.2,��
2021/06/05,11:40,0.609,0.894,0.572,1.087,0.779,0.367,0.636,0.595,��쓌,7.1,��
2021/06/05,11:50,0.611,0.898,0.572,1.089,0.780,0.367,0.635,0.596,��쓌,8.3,��
2021/06/05,12:00,0.610,0.897,0.574,1.086,0.779,0.367,0.636,0.594,��쓌,8.5,��
2021/06/05,12:10,0.610,0.899,0.573,1.084,0.781,0.368,0.636,0.595,��쓌,7.7,��
2021/06/05,12:20,0.612,0.898,0.572,1.087,0.781,0.369,0.635,0.595,��쓌,8.2,��
2021/06/05,12:30,0.612,0.900,0.574,1.088,0.781,0.369,0.638,0.595,��쓌,8.6,��
2021/06/05,12:40,0.612,0.900,0.573,1.087,0.779,0.370,0.637,0.595,��쓌,8.3,��
2021/06/05,12:50,0.612,0.902,0.573,1.087,0.781,0.368,0.637,0.594,��쓌,8.5,��
2021/06/05,13:00,0.614,0.899,0.575,1.088,0.780,0.370,0.637,0.596,��쓌,9.2,��
2021/06/05,13:10,0.613,0.899,0.573,1.089,0.783,0.370,0.637,0.597,��쓌,9.1,��
2021/06/05,13:20,0.612,0.901,0.575,1.091,0.783,0.370,0.636,0.597,��쓌,8.1,��
2021/06/05,13:30,0.613,0.899,0.576,1.091,0.783,0.370,0.636,0.598,��쓌,9.7,��
2021/06/05,13:40,0.612,0.899,0.576,1.091,0.783,0.371,0.635,0.597,��쓌,9.2,��
2021/06/05,13:50,0.615,0.899,0.574,1.092,0.781,0.370,0.636,0.596,��쓌,10.0,��
2021/06/05,14:00,0.612,0.900,0.575,1.093,0.786,0.371,0.639,0.597,��쓌,10.2,��
2021/06/05,14:10,0.614,0.904,0.574,1.093,0.783,0.371,0.636,0.596,��쓌,8.9,��
2021/06/05,14:20,0.613,0.903,0.574,1.091,0.784,0.371,0.637,0.597,��쓌,9.4,��
2021/06/05,14:30,0.614,0.902,0.574,1.092,0.784,0.371,0.637,0.597,��쓌,11.0,��
2021/06/05,14:40,0.615,0.902,0.575,1.092,0.783,0.371,0.636,0.596,��쓌,12.1,��
2021/06/05,14:50,0.613,0.903,0.574,1.092,0.784,0.371,0.637,0.596,��쓌,12.7,��
2021/06/05,15:00,0.614,0.903,0.575,1.092,0.785,0.372,0.637,0.596,��쓌,12.1,��
2021/06/05,15:10,0.612,0.904,0.575,1.094,0.785,0.371,0.636,0.596,��쓌,11.8,��
2021/06/05,15:20,0.614,0.901,0.574,1.092,0.784,0.371,0.637,0.596,��쓌,13.1,��
2021/06/05,15:30,0.612,0.902,0.574,1.092,0.784,0.371,0.637,0.597,��쓌,11.6,��
2021/06/05,15:40,0.614,0.906,0.577,1.093,0.785,0.371,0.637,0.596,��쓌,14.7,��
2021/06/05,15:50,0.613,0.905,0.576,1.092,0.786,0.371,0.637,0.596,��쓌,14.1,��
2021/06/05,16:00,0.614,0.905,0.576,1.094,0.787,0.372,0.637,0.598,��쓌,13.9,��
2021/06/05,16:10,0.614,0.905,0.576,1.095,0.786,0.371,0.638,0.596,��쓌,13.9,��
2021/06/05,16:20,0.613,0.903,0.576,1.092,0.785,0.371,0.637,0.596,��쓌,15.2,��
2021/06/05,16:30,0.613,0.905,0.577,1.092,0.786,0.372,0.638,0.596,��,12.8,��
2021/06/05,16:40,0.613,0.906,0.576,1.094,0.785,0.371,0.637,0.597,��,12.0,��
2021/06/05,16:50,0.616,0.905,0.576,1.094,0.786,0.372,0.637,0.596,��,11.7,��
2021/06/05,17:00,0.616,0.904,0.575,1.095,0.786,0.372,0.637,0.596,��,9.9,��
2021/06/05,17:10,0.614,0.904,0.577,1.094,0.788,0.372,0.637,0.597,��,9.1,��
2021/06/05,17:20,0.615,0.905,0.575,1.093,0.786,0.372,0.638,0.597,��,10.2,��
2021/06/05,17:30,0.614,0.905,0.577,1.097,0.787,0.372,0.637,0.597,��,8.8,��
2021/06/05,17:40,0.614,0.905,0.576,1.095,0.785,0.371,0.639,0.597,��,8.6,��
2021/06/05,17:50,0.614,0.904,0.575,1.096,0.785,0.370,0.638,0.596,��,7.7,��
2021/06/05,18:00,0.614,0.905,0.575,1.099,0.785,0.369,0.638,0.595,��,8.1,��
2021/06/05,18:10,0.614,0.904,0.574,1.098,0.785,0.372,0.638,0.596,��,10.2,��
2021/06/05,18:20,0.617,0.906,0.574,1.098,0.786,0.370,0.638,0.596,��,8.5,��
2021/06/05,18:30,0.613,0.907,0.576,1.097,0.786,0.370,0.638,0.598,��,10.2,��
2021/06/05,18:40,0.615,0.905,0.576,1.099,0.788,0.371,0.637,0.598,��,9.2,��
2021/06/05,18:50,0.616,0.906,0.577,1.099,0.789,0.371,0.636,0.598,��,9.7,��
2021/06/05,19:00,0.613,0.905,0.578,1.099,0.784,0.371,0.639,0.599,��,9.8,��
2021/06/05,19:10,0.615,0.907,0.578,1.098,0.785,0.372,0.639,0.598,��,8.9,��
2021/06/05,19:20,0.614,0.907,0.578,1.099,0.785,0.371,0.640,0.600,��,8.0,��
2021/06/05,19:30,0.616,0.909,0.579,1.099,0.787,0.370,0.638,0.598,��,9.4,��
2021/06/05,19:40,0.615,0.907,0.579,1.100,0.789,0.372,0.638,0.599,��,7.5,��
2021/06/05,19:50,0.616,0.908,0.580,1.099,0.787,0.369,0.639,0.600,��,7.7,��
2021/06/05,20:00,0.615,0.908,0.580,1.098,0.787,0.370,0.640,0.599,��,7.7,��
2021/06/05,20:10,0.615,0.910,0.579,1.098,0.787,0.370,0.639,0.600,��,8.6,��
2021/06/05,20:20,0.615,0.910,0.579,1.100,0.788,0.371,0.639,0.599,��,8.3,��
2021/06/05,20:30,0.616,0.909,0.579,1.100,0.789,0.371,0.639,0.600,��,9.3,��
2021/06/05,20:40,0.617,0.910,0.578,1.099,0.788,0.369,0.640,0.599,��,9.5,��
2021/06/05,20:50,0.616,0.909,0.579,1.098,0.790,0.370,0.639,0.599,��,9.1,��
2021/06/05,21:00,0.617,0.911,0.580,1.101,0.787,0.370,0.640,0.600,��,8.7,��
2021/06/05,21:10,0.618,0.909,0.580,1.100,0.790,0.371,0.639,0.600,��,8.6,��
2021/06/05,21:20,0.614,0.909,0.579,1.099,0.789,0.371,0.638,0.599,��,7.7,��
2021/06/05,21:30,0.616,0.910,0.580,1.100,0.787,0.369,0.639,0.597,��,5.6,��
2021/06/05,21:40,0.615,0.911,0.579,1.100,0.789,0.370,0.639,0.599,��,7.4,��
2021/06/05,21:50,0.614,0.911,0.579,1.097,0.789,0.370,0.638,0.600,��,8.1,��
2021/06/05,22:00,0.614,0.909,0.580,1.098,0.790,0.369,0.640,0.599,��,5.9,��
2021/06/05,22:10,0.617,0.909,0.580,1.101,0.786,0.369,0.639,0.600,��쐼,4.8,��
2021/06/05,22:20,0.614,0.910,0.578,1.098,0.791,0.369,0.640,0.601,��,6.1,��
2021/06/05,22:30,0.617,0.912,0.578,1.099,0.788,0.370,0.639,0.600,��,6.4,��
2021/06/05,22:40,0.618,0.911,0.581,1.100,0.789,0.370,0.640,0.599,��,6.8,��
2021/06/05,22:50,0.617,0.910,0.579,1.100,0.788,0.369,0.640,0.599,��,7.2,��
2021/06/05,23:00,0.618,0.910,0.579,1.099,0.792,0.371,0.640,0.600,��,6.6,��
2021/06/05,23:10,0.618,0.911,0.581,1.099,0.789,0.370,0.641,0.600,��,6.0,��
2021/06/05,23:20,0.617,0.911,0.580,1.101,0.790,0.372,0.640,0.599,��,7.0,��
2021/06/05,23:30,0.618,0.912,0.580,1.100,0.788,0.370,0.640,0.600,��,6.9,��
2021/06/05,23:40,0.617,0.912,0.580,1.099,0.789,0.369,0.641,0.600,��,6.9,��
2021/06/05,23:50,0.618,0.909,0.579,1.099,0.791,0.371,0.639,0.599,��,6.1,��
